{"data":{"norad_id":63514,"intl_designator":"2025-071X","name":"STARLINK-33786","alt_names":[],"object_type":"PAYLOAD","status":"ACTIVE","operator":null,"country":"US","launch_date":"2025-04-07","launch_site_code":"AFWTR","launch_vehicle":null,"mission":null,"orbit_class":"UNKNOWN","rcs_meters":null,"size_class":null,"mass_kg":null,"dimensions":null,"purposes":["comms"],"wikipedia_slug":null,"has_3d_model":false,"image_url":null,"decayed_at":null,"tle_current":{"epoch":"2026-05-25T03:49:20.902080Z","epoch_age_seconds":68212,"freshness":"FRESH","line1":"1 63514U 25071X   26145.15926970  .00017346  00000+0  59624-3 0  9990","line2":"2 63514  53.1561 144.9778 0001124  97.5682 262.5446 15.30209443 64096","mean_motion":15.30209443,"eccentricity":0.0001124,"inclination_deg":53.1561,"raan_deg":144.9778,"arg_perigee_deg":97.5682,"mean_anomaly_deg":262.5446,"bstar":0.00059624,"rev_number":6409,"period_min":94.104764977587,"perigee_km":474.41656086494,"apogee_km":475.95718807192,"semimajor_km":6853.3238744684,"source":"CELESTRAK","updated_at":"2026-05-25T13:38:20.038494Z"}}}